Time,TemperatureF,DewpointF,PressureIn,WindDirection,WindDirectionDegrees,WindSpeedMPH,WindSpeedGustMPH,Humidity,HourlyPrecipIn,Conditions,Clouds,dailyrainin,SoftwareType,DateUTC
2013-01-10 00:00:00,-999.0,-99.9,-100.00,SSW,211,5.0,-999.0,94,-99.99,,,-99.99,,2013-01-10 08:00:00,
2013-01-10 01:00:00,-999.0,-99.9,-100.00,SSW,209,6.0,-999.0,94,-99.99,,,-99.99,,2013-01-10 09:00:00,
2013-01-10 02:00:00,-999.0,-99.9,-100.00,SSW,203,5.0,-999.0,94,-99.99,,,-99.99,,2013-01-10 10:00:00,
2013-01-10 03:00:00,-999.0,-99.9,-100.00,SSW,208,6.0,-999.0,93,-99.99,,,-99.99,,2013-01-10 11:00:00,
2013-01-10 04:00:00,-999.0,-99.9,-100.00,SW,219,7.0,-999.0,93,-99.99,,,-99.99,,2013-01-10 12:00:00,
2013-01-10 05:00:00,-999.0,-99.9,-100.00,SW,219,6.0,-999.0,92,-99.99,,,-99.99,,2013-01-10 13:00:00,
2013-01-10 06:00:00,-999.0,-99.9,-100.00,SSW,202,6.0,-999.0,92,-99.99,,,-99.99,,2013-01-10 14:00:00,
2013-01-10 07:00:00,-999.0,-99.9,-100.00,SSW,195,5.0,-999.0,93,-99.99,,,-99.99,,2013-01-10 15:00:00,
2013-01-10 08:00:00,-999.0,-99.9,-100.00,SSW,209,3.0,-999.0,93,-99.99,,,-99.99,,2013-01-10 16:00:00,
2013-01-10 09:00:00,-999.0,-99.9,-100.00,South,174,2.0,-999.0,94,-99.99,,,-99.99,,2013-01-10 17:00:00,
2013-01-10 09:54:00,-999.0,-99.9,-100.00,South,174,2.0,-999.0,94,-99.99,,,-99.99,,2013-01-10 17:54:00,
2013-01-10 10:00:00,-999.0,-99.9,-100.00,South,182,2.0,-999.0,95,-99.99,,,-99.99,,2013-01-10 18:00:00,
2013-01-10 11:00:00,-999.0,-99.9,-100.00,SW,216,3.0,-999.0,95,-99.99,,,-99.99,,2013-01-10 19:00:00,
2013-01-10 12:00:00,-999.0,-99.9,-100.00,SW,235,2.0,-999.0,94,-99.99,,,-99.99,,2013-01-10 20:00:00,
2013-01-10 13:00:00,-999.0,-99.9,-100.00,SW,231,2.0,-999.0,92,-99.99,,,-99.99,,2013-01-10 21:00:00,
2013-01-10 14:00:00,-999.0,-99.9,-100.00,WSW,258,3.0,-999.0,91,-99.99,,,-99.99,,2013-01-10 22:00:00,
2013-01-10 15:00:00,-999.0,-99.9,-100.00,WSW,257,3.0,-999.0,88,-99.99,,,-99.99,,2013-01-10 23:00:00,
2013-01-10 15:54:00,-999.0,-99.9,-100.00,WSW,257,3.0,-999.0,88,-99.99,,,-99.99,,2013-01-10 23:54:00,
2013-01-10 17:00:00,-999.0,-99.9,-100.00,SW,222,2.0,-999.0,90,-99.99,,,-99.99,,2013-01-11 01:00:00,
2013-01-10 18:00:00,-999.0,-99.9,-100.00,South,186,3.0,-999.0,92,-99.99,,,-99.99,,2013-01-11 02:00:00,
2013-01-10 20:00:00,-999.0,-99.9,-100.00,SSW,194,3.0,-999.0,95,-99.99,,,-99.99,,2013-01-11 04:00:00,
2013-01-10 21:00:00,-999.0,-99.9,-100.00,SW,229,6.0,-999.0,95,-99.99,,,-99.99,,2013-01-11 05:00:00,
2013-01-10 22:00:00,-999.0,-99.9,-100.00,SW,219,3.0,-999.0,94,-99.99,,,-99.99,,2013-01-11 06:00:00,
2013-01-10 23:00:00,-999.0,-99.9,-100.00,SW,233,3.0,-999.0,94,-99.99,,,-99.99,,2013-01-11 07:00:00,